DELTA 1 DEB, 9979

Orbit data source: Space-Track

DELTA 1 DEB, 9979 is space debris in LEO originally from a launch on Tue, 06 Nov 1973 UTC launched from the Air Force Western Test Range (AFWTR). Debris objects in space refer to the collection of defunct objects orbiting the Earth. Examples of debris include non-operational satellites, rocket bodies, and fragments generated from explosions, collisions, or faulty payload assembly.

Loading next visibility...
Identifier
9979, 1973-086GJ
Orbit
LEO
Country
Flag of USUS
Related business
Manufacturer
Unknown
Mission
Spacecraft
Bus & Motor
Unknown
Mass
Unknown
Launch date (UTC)
1973-11-06 (52 years ago)
Launch vehicle
Unknown
Launch site
Air Force Western Test Range (AFWTR)
Object type
Payload
Rocket body
Debris
Shape & HBR
Unknown shape, 0.1 m
Radar Cross Section
Small (<0.1 m²)

Expand to show TLE details & history
Last TLE update: 2 days ago

TLE from 2 days ago
0 DELTA 1 DEB
1 09979U 73086GJ  25352.16020935 -.00000778  00000-0 -10774-1 0  9995
2 09979 101.9383 297.8658 0598744 261.8418 105.0455 11.50770002499097
Epoch: 2025-12-18T03:50Z
TLE epoch observation values (Epoch: 2025-12-18T03:50:42.087Z)
Latitude
13.04817°
Longitude
150.37497°
Altitude
2,066.635 km
Speed
6.807 km/s
True Right ascension
19h 40m 16s
True Declination
12° 59' 04"
Sunlit
Object was in daylight at epoch
Visualization orbit readout
Latitude
Unknown
Longitude
Unknown
Altitude
Unknown
Speed
Unknown
Apparent Right ascension
Unknown
Apparent Declination
Unknown
Sunlit
N/A
Visualization observer readout
Local Sidereal Time
05:48:45
Azimuth
Unknown
Elevation
Unknown
Doppler factor
Unknown
Orbital elements
Apogee altitude
2,402.826 km
Perigee altitude
1,410.718 km
Semi-major axis
8,284.909 km
Eccentricity
0.05987
Inclination
101.9383°
RAAN
297.8658°
Arg. of periapsis
261.8418°
True anomaly
111.53119°
Mean anomaly
105.0455°
Eccentric anomaly
108.3025°
Mean motion
2.87814 °/min
Orbital period
125.08 mins
BSTAR
-0.010774
Loading maneuver chart data...
Computing Atmospheric mass density...
Loading historical data...
Loading historical data...
Loading historical data...
Loading historical data...
Loading historical data...
Loading historical data...
Loading historical data...

Documentation

Showing up to 5 results
|